GW4186 Weather Reports


time (UTC)temp
F
wind
direction
speed
knots
gust
knots
rain 1hr
in
rain 24hr
in
rain mn
in
humidity
%
barometer
mb
20260507091556 34 126 1.7 4.3 0.00 0.88 0.00 98 988.4
20260507090057 34 0 2.6 7.0 0.00 0.88 0.00 98 988.3
20260507084554 34 136 2.6 9.6 0.00 0.88 0.00 98 988.3
20260507083047 34 0 1.7 6.1 0.00 0.88 0.00 98 988.5
20260507081554 34 87 2.6 7.0 0.00 0.88 0.00 98 988.5
20260507080052 35 128 0.9 6.1 0.00 0.88 0.00 98 988.2
20260507074602 35 145 3.5 7.8 0.00 0.92 0.00 98 988.3
20260507073051 35 202 3.5 7.0 0.00 0.92 0.00 98 988.0
20260507071550 35 0 0.9 4.3 0.00 0.92 0.00 98 988.5
20260507070050 36 180 3.5 7.8 0.00 0.92 0.00 98 987.9
20260507064554 36 141 5.2 12.2 0.00 0.93 0.00 98 988.1
20260507063048 36 175 6.1 10.4 0.00 0.93 0.00 99 987.7
20260507061551 37 167 6.1 12.2 0.00 0.93 0.00 98 987.8
20260507060052 37 158 7.0 11.3 0.00 0.93 0.00 99 987.8
20260507054631 37 147 7.0 10.4 0.00 0.96 0.00 98 987.8
20260507053055 37 195 5.2 8.7 0.00 0.96 0.00 98 988.0
20260507051552 38 157 4.3 6.1 0.00 0.96 0.00 98 988.1
20260507050057 38 170 3.5 7.0 0.00 0.96 0.00 98 988.0
20260507044600 38 150 4.3 12.2 0.00 0.96 0.00 98 988.0
20260507043050 38 163 6.1 9.6 0.01 0.96 0.00 98 988.3
20260507041600 39 144 1.7 7.8 0.02 0.96 0.00 98 988.4
20260507040058 39 160 7.0 11.3 0.02 0.96 0.00 98 989.0
20260507034558 39 126 5.2 10.4 0.04 0.96 0.96 98 988.9
20260507033053 40 145 6.1 13.0 0.05 0.95 0.95 98 989.0
20260507031604 40 144 6.1 10.4 0.07 0.94 0.94 98 988.8
20260507030055 40 127 7.0 11.3 0.15 0.94 0.94 98 988.7
20260507024553 40 156 5.2 12.2 0.21 0.92 0.92 98 988.8
20260507023103 41 133 2.6 7.0 0.21 0.90 0.90 97 988.4
20260507021554 41 133 1.7 6.1 0.18 0.87 0.87 97 988.4
20260507020056 42 150 3.5 7.8 0.10 0.79 0.79 97 988.5
20260507014602 43 145 0.0 3.5 0.03 0.71 0.71 97 988.1
20260507013053 43 145 0.0 3.5 0.01 0.69 0.69 97 988.2
20260507011552 44 143 2.6 3.5 0.02 0.69 0.69 97 988.2
20260507010049 45 172 0.0 4.3 0.03 0.69 0.69 97 988.1
20260507004552 46 91 3.5 6.1 0.04 0.68 0.68 96 988.6
20260507003055 46 3 3.5 5.2 0.09 0.68 0.68 97 988.3
20260507001551 46 39 1.7 3.5 0.15 0.67 0.67 97 988.4
20260507000054 46 155 1.7 5.2 0.15 0.66 0.66 97 988.4
20260506234554 46 42 2.6 4.3 0.15 0.64 0.64 97 988.7
20260506233108 46 96 3.5 7.0 0.09 0.58 0.58 96 988.7
20260506231556 48 88 4.3 10.4 0.03 0.52 0.52 95 988.3
20260506230053 51 116 6.1 12.2 0.03 0.51 0.51 95 987.8
20260506224550 53 147 4.3 7.8 0.02 0.52 0.49 93 987.7
20260506223053 52 354 3.5 8.7 0.02 0.52 0.49 93 987.5
20260506221553 52 41 5.2 10.4 0.03 0.52 0.49 92 987.8
20260506220052 52 6 6.1 13.0 0.02 0.51 0.48 93 988.1
20260506214550 52 39 6.1 10.4 0.02 0.66 0.47 93 988.3
20260506213105 52 45 7.0 11.3 0.03 0.66 0.47 93 988.2
20260506211551 52 31 7.0 13.0 0.03 0.65 0.46 92 988.3
20260506210054 53 349 7.8 12.2 0.04 0.65 0.46 92 988.2
20260506204554 53 31 4.3 8.7 0.04 0.64 0.45 93 988.4
20260506203046 53 49 4.3 8.7 0.04 0.63 0.44 94 988.3
20260506201550 53 31 4.3 9.6 0.04 0.62 0.43 94 988.4
20260506200051 53 33 4.3 8.7 0.05 0.61 0.42 93 988.5
20260506194616 52 16 6.1 10.4 0.06 0.60 0.41 93 988.7
20260506193102 52 321 3.5 12.2 0.06 0.58 0.40 93 988.9
20260506191551 52 28 4.3 9.6 0.12 0.58 0.39 93 989.1
20260506190052 52 22 6.1 15.6 0.12 0.56 0.37 93 989.3
20260506184550 52 29 6.1 16.5 0.13 0.54 0.35 94 989.2
20260506183051 51 346 3.5 10.4 0.17 0.52 0.34 94 989.5
20260506181550 51 9 4.3 8.7 0.13 0.46 0.27 93 989.7
20260506180104 51 360 5.2 10.4 0.11 0.44 0.25 94 989.5
20260506174555 50 341 6.1 10.4 0.08 0.40 0.21 94 989.7
20260506173057 52 322 5.2 13.9 0.04 0.36 0.17 92 989.7
20260506171601 53 16 8.7 13.0 0.02 0.33 0.14 91 989.7
20260506170111 52 27 7.8 18.2 0.02 0.33 0.14 93 990.0
20260506164607 52 326 11.3 18.2 0.01 0.32 0.13 91 990.2
20260506163124 52 33 12.2 18.2 0.01 0.32 0.13 91 990.7
20260506161614 52 350 9.6 19.1 0.00 0.31 0.12 91 991.0
20260506160053 53 16 9.6 16.5 0.00 0.31 0.12 90 991.1
20260506154609 53 14 13.0 25.2 0.00 0.31 0.12 90 991.5
20260506153102 53 8 10.4 16.5 0.00 0.31 0.12 91 991.2
20260506151600 52 5 9.6 13.9 0.01 0.31 0.12 92 991.1
20260506150051 51 340 12.2 18.2 0.03 0.31 0.12 94 991.1
20260506144551 50 330 14.8 23.5 0.04 0.31 0.12 94 990.8
20260506143104 50 332 13.0 21.7 0.04 0.31 0.12 94 990.8
20260506141556 49 339 13.0 20.9 0.03 0.30 0.11 95 991.4
20260506140049 48 322 15.6 24.3 0.01 0.28 0.09 96 991.6
20260506134550 48 343 17.4 25.2 0.00 0.27 0.08 97 991.3
20260506133053 47 337 17.4 25.2 0.00 0.27 0.08 97 990.9
20260506131550 48 337 17.4 27.8 0.00 0.27 0.08 95 991.5
20260506130053 48 342 14.8 27.8 0.00 0.27 0.08 94 991.5
20260506124552 49 13 8.7 14.8 0.00 0.27 0.08 93 992.0
20260506123054 48 115 0.9 4.3 0.00 0.27 0.08 95 992.0
20260506121600 48 131 4.3 6.1 0.00 0.27 0.08 94 992.3
20260506120059 48 262 1.7 4.3 0.00 0.27 0.08 94 992.4
20260506114559 48 160 1.7 4.3 0.00 0.27 0.08 94 992.6
20260506113054 49 131 1.7 4.3 0.00 0.27 0.08 92 992.4
20260506111551 49 49 0.9 3.5 0.00 0.27 0.08 91 992.3
20260506104550 48 2 2.6 4.3 0.00 0.27 0.08 92 992.2
20260506103049 48 14 2.6 7.8 0.00 0.27 0.08 92 992.6
20260506101602 46 343 4.3 7.0 0.00 0.27 0.08 94 992.5
20260506100050 46 10 1.7 4.3 0.00 0.27 0.08 94 992.9
20260506094615 46 24 1.7 5.2 0.00 0.27 0.08 94 992.7
20260506093054 46 351 4.3 6.1 0.00 0.27 0.08 95 992.5